COSMOS 374 DEB

Satellite information

Favourite Embed

Satellite Type and Status

DEBRISIN ORBIT

Key statistics

Satellite COSMOS 374 DEB at a glance.

Uptime

20044

Days in orbit

Revolutions

≈ 12.9

Per day

Orbit

MEO

Medium Earth Orbit

Inclination

62.8

Latest

Satellite identification and parameters

Extended collection of information and parameters for COSMOS 374 DEB.

Object identification

Identified? True

Debris? True

Object name: COSMOS 374 DEB

International designator: 1970-089AP

Object number (NORAD): 5076

Object ID (CCSDS): 5076

Country: COMMONWEALTH OF INDEPENDENT STATES (CIS)

Current information (Y/N): Y

RCS size: SMALL

Orbital parameters

Period: 111.878 minutes

Inclination: 62.7947 deg

SMA: 7691.139 km

Apoapsis: 2076.952 km

Periapsis: 549.057 km

RAAN: 93.3936 deg

Eccentricy: 0.09932824

Argument of periapsis: 175.457 deg

Mean anomaly: 185.6334 deg

Mean motion: 12.87113157 rev/day

Mean motion (dot): 0.0000061 rev/day2

B* drag term: 0.00028628879 1/REarth

Two-line elements (TLE)

Creation date: Sept. 8, 2025, 3:16 a.m.

Reference frame: TEME

Reference center: EARTH

Epoch: Sept. 7, 2025, 9:49 p.m. UTC

TLE line 0: 0 COSMOS 374 DEB

TLE line 1: 1 05076U 70089AP 25250.90926315 .00000610 00000-0 28629-3 0 9998

TLE line 2: 2 05076 62.7947 93.3936 0993282 175.4570 185.6334 12.87113157559353

Live tracking on map

Real-time ground track for satellite COSMOS 374 DEB.

In-orbit conjunctions

A list of the most updated potential collisions computed for object COSMOS 374 DEB.

Target Orbit TCA Probability of collision Miss distance Type
CZ-4 DEB SSO 2024-11-11 10:40:37 0.0003782344 275.0 (m) DEBRIS
COSMOS 1758 LEO 2024-06-21 22:30:53 0.0001486012 503.0 (m) PAYLOAD

Associated space launch

The I2P satellites were the first soviet coorbital ASAT system.

COSMOS 374 DEB was lifted into orbit during the mission ‘Tsiklon-2 | I2P 4’, on board a Tsiklon-2 space rocket.

The launch took place on Oct. 23, 1970, 4:42 a.m. from 90/20.

For more information about the launch, click the button.

Launch to space Tsiklon-2 | I2P 4
Tsiklon-2 | I2P 4

Agency: N/A

Status: Launch Successful

Launch date: Oct. 23, 1970, 4:42 a.m. UTC

Rocket: Tsiklon-2

Launch pad: 90/20

Location: Baikonur Cosmodrome, Republic of Kazakhstan

...

Latest news about this satellite

There are no fresh news available about this satellite. Check back as we update our databases every day.


Newsletter sign-up

Weekly statistics, charts and insights to help you stay on top of the space industry.